TimeCST,TemperatureF,Dew PointF,Humidity,Sea Level PressureIn,VisibilityMPH,Wind Direction,Wind SpeedMPH,Gust SpeedMPH,PrecipitationIn,Events,Conditions,WindDirDegrees,DateUTC
12:15 AM,46.4,44.4,93,29.97,7.0,NW,5.8,-,N/A,,Light Drizzle,310,2012-11-07 06:15:00
12:35 AM,45.9,44.2,94,29.97,7.0,WNW,3.5,-,N/A,Rain,Light Rain,300,2012-11-07 06:35:00
12:55 AM,45.7,44.2,95,29.97,5.0,NW,4.6,-,N/A,Rain,Light Rain,310,2012-11-07 06:55:00
1:15 AM,45.5,44.2,95,29.96,7.0,Calm,Calm,-,N/A,,Overcast,0,2012-11-07 07:15:00
1:35 AM,45.1,44.1,96,29.95,7.0,Calm,Calm,-,N/A,,Mostly Cloudy,0,2012-11-07 07:35:00
1:55 AM,43.2,42.6,98,29.95,2.5,Calm,Calm,-,N/A,,Scattered Clouds,0,2012-11-07 07:55:00
2:15 AM,41.7,41.5,99,29.95,1.5,Calm,Calm,-,N/A,,Mist,0,2012-11-07 08:15:00
2:55 AM,43.0,41.9,96,29.95,7.0,Calm,Calm,-,N/A,,Mostly Cloudy,0,2012-11-07 08:55:00
3:15 AM,42.8,41.4,95,29.94,7.0,West,3.5,-,N/A,,Scattered Clouds,270,2012-11-07 09:15:00
3:35 AM,42.8,41.4,95,29.95,7.0,West,3.5,-,N/A,,Scattered Clouds,280,2012-11-07 09:35:00
3:55 AM,42.8,41.5,95,29.95,7.0,West,4.6,-,N/A,,Mostly Cloudy,280,2012-11-07 09:55:00
4:15 AM,42.8,41.2,94,29.95,7.0,WNW,3.5,-,N/A,,Mostly Cloudy,300,2012-11-07 10:15:00
4:35 AM,42.1,40.6,95,29.96,7.0,WNW,4.6,-,N/A,,Scattered Clouds,300,2012-11-07 10:35:00
4:55 AM,42.3,40.8,95,29.96,7.0,West,4.6,-,N/A,,Mostly Cloudy,280,2012-11-07 10:55:00
5:15 AM,42.6,41.0,94,29.96,7.0,WNW,4.6,-,N/A,,Overcast,300,2012-11-07 11:15:00
5:35 AM,42.1,40.6,95,29.96,7.0,Calm,Calm,-,N/A,,Mostly Cloudy,0,2012-11-07 11:35:00
5:55 AM,41.4,40.1,95,29.96,7.0,WNW,3.5,-,N/A,,Mostly Cloudy,290,2012-11-07 11:55:00
6:15 AM,41.0,39.9,96,29.96,5.0,Calm,Calm,-,N/A,,Mostly Cloudy,0,2012-11-07 12:15:00
6:35 AM,40.3,39.6,97,29.97,4.0,Calm,Calm,-,N/A,,Scattered Clouds,0,2012-11-07 12:35:00
6:55 AM,40.6,39.7,97,29.98,4.0,Calm,Calm,-,N/A,,Clear,0,2012-11-07 12:55:00
7:15 AM,41.7,40.3,95,29.99,5.0,NW,3.5,-,N/A,,Clear,310,2012-11-07 13:15:00
7:35 AM,43.2,41.0,92,29.99,5.0,NW,3.5,-,N/A,,Clear,310,2012-11-07 13:35:00
7:55 AM,45.0,41.5,88,29.99,7.0,NW,6.9,-,N/A,,Scattered Clouds,310,2012-11-07 13:55:00
8:15 AM,46.2,41.9,85,29.99,10.0,NW,5.8,-,N/A,,Mostly Cloudy,310,2012-11-07 14:15:00
8:35 AM,46.4,41.5,83,29.99,10.0,NW,5.8,-,N/A,,Mostly Cloudy,320,2012-11-07 14:35:00
8:55 AM,46.9,41.5,81,30.00,10.0,NW,5.8,-,N/A,,Mostly Cloudy,320,2012-11-07 14:55:00
9:15 AM,47.1,41.2,80,30.00,10.0,WNW,5.8,-,N/A,,Scattered Clouds,300,2012-11-07 15:15:00
9:35 AM,48.9,41.4,75,29.99,10.0,NNW,8.1,-,N/A,,Scattered Clouds,340,2012-11-07 15:35:00
9:55 AM,49.8,40.8,71,29.99,10.0,WNW,8.1,-,N/A,,Scattered Clouds,290,2012-11-07 15:55:00
10:15 AM,50.4,40.5,69,29.99,10.0,West,5.8,-,N/A,,Mostly Cloudy,270,2012-11-07 16:15:00
10:35 AM,51.3,40.6,67,29.98,10.0,WNW,9.2,-,N/A,,Mostly Cloudy,300,2012-11-07 16:35:00
10:55 AM,51.4,40.5,66,29.98,10.0,WNW,5.8,-,N/A,,Mostly Cloudy,300,2012-11-07 16:55:00
11:15 AM,52.7,40.5,63,29.97,10.0,NNW,4.6,-,N/A,,Mostly Cloudy,330,2012-11-07 17:15:00
11:35 AM,52.9,40.1,62,29.96,10.0,NNW,6.9,-,N/A,,Scattered Clouds,330,2012-11-07 17:35:00
11:55 AM,53.1,39.4,60,29.95,10.0,NW,5.8,-,N/A,,Mostly Cloudy,320,2012-11-07 17:55:00
12:15 PM,50.4,39.2,66,29.95,10.0,NW,4.6,-,N/A,Rain,Light Rain,320,2012-11-07 18:15:00
12:35 PM,49.5,41.4,74,29.95,10.0,Calm,Calm,-,N/A,,Light Drizzle,0,2012-11-07 18:35:00
12:55 PM,50.4,41.7,72,29.95,10.0,Calm,Calm,-,N/A,,Mostly Cloudy,0,2012-11-07 18:55:00
1:15 PM,48.9,40.8,74,29.97,3.0,North,10.4,17.3,0.09,Rain,Heavy Rain,360,2012-11-07 19:15:00
1:35 PM,43.0,39.7,88,29.97,5.0,NE,3.5,-,0.17,Rain,Light Rain,40,2012-11-07 19:35:00
1:55 PM,43.3,41.2,92,29.98,10.0,Calm,Calm,-,0.18,Rain,Light Rain,0,2012-11-07 19:55:00
2:15 PM,43.7,41.2,91,29.98,10.0,NNW,9.2,-,N/A,,Mostly Cloudy,340,2012-11-07 20:15:00
2:35 PM,43.9,41.2,90,29.99,10.0,NNW,6.9,-,N/A,Rain,Rain,340,2012-11-07 20:35:00
2:55 PM,44.1,41.4,90,30.00,10.0,NNW,8.1,17.3,N/A,,Scattered Clouds,330,2012-11-07 20:55:00
3:15 PM,44.1,40.8,88,30.00,10.0,NNW,6.9,-,N/A,,Scattered Clouds,340,2012-11-07 21:15:00
3:35 PM,44.2,40.6,87,30.01,10.0,NNW,5.8,-,N/A,,Scattered Clouds,340,2012-11-07 21:35:00
3:55 PM,43.9,41.0,90,30.02,10.0,NNW,8.1,16.1,N/A,,Light Drizzle,340,2012-11-07 21:55:00
4:15 PM,43.5,41.0,91,30.02,10.0,NNW,3.5,-,N/A,,Scattered Clouds,340,2012-11-07 22:15:00
4:35 PM,43.2,40.8,91,30.04,10.0,NNW,4.6,-,N/A,,Clear,330,2012-11-07 22:35:00
4:55 PM,42.6,40.6,93,30.05,10.0,North,3.5,-,N/A,,Clear,360,2012-11-07 22:55:00
5:15 PM,42.1,40.5,94,30.05,10.0,NW,4.6,-,N/A,,Scattered Clouds,320,2012-11-07 23:15:00
5:35 PM,42.3,40.8,95,30.06,10.0,NW,3.5,-,N/A,,Mostly Cloudy,310,2012-11-07 23:35:00
5:55 PM,42.1,40.6,95,30.07,10.0,NNW,4.6,-,N/A,,Scattered Clouds,330,2012-11-07 23:55:00
6:15 PM,41.7,40.1,94,30.08,10.0,NNW,4.6,-,N/A,,Clear,330,2012-11-08 00:15:00
6:35 PM,41.5,40.1,95,30.08,10.0,North,3.5,-,N/A,,Clear,350,2012-11-08 00:35:00
6:55 PM,41.4,40.1,95,30.09,10.0,NNW,4.6,-,N/A,,Clear,340,2012-11-08 00:55:00
7:15 PM,41.0,39.7,95,30.09,10.0,NNW,5.8,-,N/A,,Clear,340,2012-11-08 01:15:00
7:35 PM,40.6,39.7,97,30.10,7.0,NNW,5.8,-,N/A,,Clear,340,2012-11-08 01:35:00
7:55 PM,40.6,39.7,97,30.11,10.0,Calm,Calm,-,N/A,,Clear,0,2012-11-08 01:55:00
8:15 PM,40.3,39.4,97,30.12,7.0,Calm,Calm,-,N/A,,Clear,0,2012-11-08 02:15:00
8:35 PM,39.4,38.7,97,30.13,5.0,North,3.5,-,N/A,,Clear,350,2012-11-08 02:35:00
8:55 PM,39.6,39.2,99,30.13,7.0,NNW,3.5,-,N/A,,Clear,340,2012-11-08 02:55:00
9:15 PM,39.9,39.2,97,30.13,10.0,North,3.5,-,N/A,,Clear,350,2012-11-08 03:15:00
9:35 PM,39.7,39.0,97,30.13,7.0,NNW,3.5,-,N/A,,Clear,340,2012-11-08 03:35:00
9:55 PM,40.1,39.2,97,30.13,10.0,Calm,Calm,-,N/A,,Scattered Clouds,0,2012-11-08 03:55:00
10:15 PM,40.1,39.0,96,30.13,7.0,NNW,3.5,-,N/A,,Scattered Clouds,330,2012-11-08 04:15:00
10:35 PM,40.1,39.0,96,30.13,7.0,NNW,3.5,-,N/A,,Mostly Cloudy,340,2012-11-08 04:35:00
10:55 PM,40.5,39.2,95,30.13,10.0,Calm,Calm,-,N/A,,Overcast,0,2012-11-08 04:55:00
11:15 PM,40.3,39.0,95,30.14,7.0,Calm,Calm,-,N/A,,Overcast,0,2012-11-08 05:15:00
11:35 PM,40.1,38.8,95,30.14,7.0,Calm,Calm,-,N/A,,Overcast,0,2012-11-08 05:35:00
11:55 PM,40.1,39.0,96,30.14,5.0,Calm,Calm,-,N/A,,Overcast,0,2012-11-08 05:55:00